Location: *
(58.4167°N, 22.5000°E)
Time: 07:59:05
(UTC+00:00)

Cosmos 2233 Rocket - Pass Details

Date: 22 September 2019
Orbit: 953 x 991 km, 82.9° (Epoch: 15 October)

Event Time Altitude Azimuth Distance (km) Brightness Sun altitude
Rises 21:40:00 0° 347° (NNW) 3,648 8.2 -30.8°
Reaches altitude 10° 21:42:30 10° 347° (NNW) 2,701 7.2 -30.9°
Enters shadow 21:48:13 78° 344° (NNW) 989 4.0 -31.0°
